Meteo pe oră la Alhos Vedros

Astăzi, 21 Ianuarie, Joi

Timp Temperatura Precipitaţii Vânt Presiune Umiditate
00:00 +12°C° 0 mm 5 m/s 758 mmHg 92%
01:00 +12°C° 0 mm 5 m/s 759 mmHg 93%
02:00 +12°C° 0 mm 4 m/s 759 mmHg 93%
03:00 +12°C° 0 mm 4 m/s 759 mmHg 93%
04:00 +12°C° 0 mm 4 m/s 759 mmHg 93%
05:00 +12°C° 0 mm 4 m/s 760 mmHg 93%
06:00 +12°C° 0.1 mm 5 m/s 760 mmHg 93%
07:00 +13°C° 0.1 mm 6 m/s 760 mmHg 93%
08:00 +14°C° 0.1 mm 7 m/s 760 mmHg 93%
09:00 +13°C° 0 mm 8 m/s 760 mmHg 88%
10:00 +15°C° 0 mm 8 m/s 760 mmHg 84%
11:00 +16°C° 0 mm 9 m/s 760 mmHg 80%
12:00 +16°C° 0.1 mm 9 m/s 760 mmHg 82%
13:00 +16°C° 0.1 mm 9 m/s 759 mmHg 84%
14:00 +15°C° 0.1 mm 9 m/s 758 mmHg 86%
15:00 +15°C° 0.5 mm 8 m/s 758 mmHg 88%
16:00 +15°C° 0.5 mm 8 m/s 758 mmHg 90%
17:00 +15°C° 0.5 mm 7 m/s 758 mmHg 93%
18:00 +15°C° 0.3 mm 7 m/s 758 mmHg 94%
19:00 +15°C° 0.3 mm 6 m/s 758 mmHg 95%
20:00 +14°C° 0.3 mm 6 m/s 758 mmHg 96%
21:00 +14°C° 0.2 mm 7 m/s 758 mmHg 95%
22:00 +13°C° 0.2 mm 8 m/s 758 mmHg 94%
23:00 +15°C° 0.2 mm 8 m/s 757 mmHg 94%

Mâine, 22 Ianuarie, Vineri

Timp Temperatura Precipitaţii Vânt Presiune Umiditate
00:00 +15°C° 0.3 mm 9 m/s 758 mmHg 91%
01:00 +15°C° 0.3 mm 9 m/s 758 mmHg 87%
02:00 +13°C° 0.3 mm 10 m/s 758 mmHg 84%
03:00 +13°C° 0.1 mm 9 m/s 758 mmHg 82%
04:00 +12°C° 0.1 mm 9 m/s 758 mmHg 79%
05:00 +12°C° 0.1 mm 8 m/s 759 mmHg 77%
06:00 +11°C° 0 mm 8 m/s 759 mmHg 77%
07:00 +11°C° 0 mm 8 m/s 760 mmHg 77%
08:00 +11°C° 0 mm 8 m/s 761 mmHg 77%
09:00 +12°C° 0.1 mm 8 m/s 761 mmHg 71%
10:00 +13°C° 0.1 mm 8 m/s 761 mmHg 66%
11:00 +15°C° 0.1 mm 8 m/s 761 mmHg 60%
12:00 +13°C° 0.1 mm 8 m/s 761 mmHg 62%
13:00 +13°C° 0.1 mm 8 m/s 761 mmHg 64%
14:00 +12°C° 0.1 mm 8 m/s 762 mmHg 65%
15:00 +12°C° 0.1 mm 8 m/s 762 mmHg 68%
16:00 +11°C° 0.1 mm 7 m/s 762 mmHg 70%
17:00 +10°C° 0.1 mm 6 m/s 762 mmHg 72%
18:00 +10°C° 0 mm 6 m/s 763 mmHg 73%
19:00 +10°C° 0 mm 6 m/s 763 mmHg 74%
20:00 +9°C° 0 mm 5 m/s 763 mmHg 76%
21:00 +9°C° 0 mm 5 m/s 763 mmHg 76%
22:00 +9°C° 0 mm 5 m/s 764 mmHg 76%
23:00 +9°C° 0 mm 5 m/s 764 mmHg 77%

Poimâine, 23 Ianuarie, Sâmbătă

Timp Temperatura Precipitaţii Vânt Presiune Umiditate
00:00 +9°C° 0 mm 5 m/s 764 mmHg 76%
01:00 +10°C° 0 mm 5 m/s 763 mmHg 76%
02:00 +10°C° 0 mm 5 m/s 763 mmHg 75%
03:00 +10°C° 0 mm 5 m/s 763 mmHg 77%
04:00 +10°C° 0 mm 5 m/s 763 mmHg 78%
05:00 +10°C° 0 mm 5 m/s 762 mmHg 80%
06:00 +12°C° 0 mm 5 m/s 762 mmHg 80%
07:00 +12°C° 0 mm 5 m/s 762 mmHg 79%
08:00 +11°C° 0 mm 6 m/s 762 mmHg 79%
09:00 +12°C° 0 mm 7 m/s 762 mmHg 76%
10:00 +14°C° 0 mm 7 m/s 762 mmHg 74%
11:00 +15°C° 0 mm 8 m/s 762 mmHg 71%
12:00 +15°C° 0 mm 8 m/s 761 mmHg 75%
13:00 +13°C° 0 mm 9 m/s 760 mmHg 78%
14:00 +13°C° 0 mm 9 m/s 760 mmHg 81%
15:00 +13°C° 0.1 mm 9 m/s 759 mmHg 83%
16:00 +13°C° 0.1 mm 9 m/s 759 mmHg 85%
17:00 +13°C° 0.1 mm 9 m/s 758 mmHg 87%
18:00 +15°C° 0.3 mm 9 m/s 758 mmHg 88%
19:00 +15°C° 0.3 mm 9 m/s 758 mmHg 89%
20:00 +15°C° 0.3 mm 9 m/s 758 mmHg 90%
21:00 +15°C° 0.3 mm 9 m/s 758 mmHg 90%
22:00 +15°C° 0.3 mm 9 m/s 758 mmHg 91%
23:00 +15°C° 0.3 mm 8 m/s 758 mmHg 91%

24 Ianuarie, Duminică

Timp Temperatura Precipitaţii Vânt Presiune Umiditate
00:00 +14°C° 0.2 mm 7 m/s 759 mmHg 90%
01:00 +13°C° 0.2 mm 6 m/s 759 mmHg 89%
02:00 +12°C° 0.2 mm 5 m/s 759 mmHg 88%
03:00 +10°C° 0 mm 5 m/s 759 mmHg 88%
04:00 +10°C° 0 mm 5 m/s 759 mmHg 87%
05:00 +10°C° 0 mm 5 m/s 760 mmHg 87%
06:00 +10°C° 0 mm 5 m/s 760 mmHg 87%
07:00 +11°C° 0 mm 4 m/s 761 mmHg 87%
08:00 +11°C° 0 mm 3 m/s 761 mmHg 88%
09:00 +12°C° 0 mm 3 m/s 762 mmHg 80%
10:00 +13°C° 0 mm 3 m/s 762 mmHg 72%
11:00 +16°C° 0 mm 2 m/s 762 mmHg 65%
12:00 +16°C° 0 mm 2 m/s 762 mmHg 64%
13:00 +16°C° 0 mm 3 m/s 762 mmHg 64%
14:00 +16°C° 0 mm 3 m/s 761 mmHg 63%
15:00 +14°C° 0 mm 3 m/s 762 mmHg 68%
16:00 +13°C° 0 mm 3 m/s 762 mmHg 73%
17:00 +12°C° 0 mm 3 m/s 762 mmHg 78%
18:00 +12°C° 0 mm 2 m/s 762 mmHg 79%
19:00 +12°C° 0 mm 1 m/s 762 mmHg 80%
20:00 +11°C° 0 mm 1 m/s 763 mmHg 81%
21:00 +11°C° 0 mm 1 m/s 763 mmHg 82%
22:00 +11°C° 0 mm 1 m/s 763 mmHg 82%
23:00 +11°C° 0 mm 1 m/s 763 mmHg 83%

25 Ianuarie, Luni

Timp Temperatura Precipitaţii Vânt Presiune Umiditate
00:00 +11°C° 0 mm 1 m/s 763 mmHg 84%
01:00 +11°C° 0 mm 1 m/s 763 mmHg 85%
02:00 +11°C° 0 mm 1 m/s 763 mmHg 86%
03:00 +11°C° 0 mm 1 m/s 763 mmHg 87%
04:00 +11°C° 0 mm 1 m/s 763 mmHg 89%
05:00 +10°C° 0 mm 1 m/s 763 mmHg 90%
06:00 +11°C° 0 mm 1 m/s 763 mmHg 89%
07:00 +10°C° 0 mm 2 m/s 764 mmHg 88%
08:00 +12°C° 0 mm 2 m/s 764 mmHg 87%
09:00 +13°C° 0 mm 2 m/s 765 mmHg 81%
10:00 +15°C° 0 mm 2 m/s 765 mmHg 76%
11:00 +16°C° 0 mm 2 m/s 765 mmHg 70%
12:00 +16°C° 0 mm 3 m/s 765 mmHg 69%
13:00 +16°C° 0 mm 3 m/s 765 mmHg 68%
14:00 +17°C° 0 mm 3 m/s 764 mmHg 67%
15:00 +14°C° 0 mm 3 m/s 764 mmHg 73%
16:00 +14°C° 0 mm 2 m/s 764 mmHg 78%
17:00 +13°C° 0 mm 2 m/s 765 mmHg 84%
18:00 +13°C° 0 mm 2 m/s 765 mmHg 85%
19:00 +13°C° 0 mm 2 m/s 765 mmHg 86%
20:00 +12°C° 0 mm 3 m/s 766 mmHg 86%
21:00 +12°C° 0 mm 3 m/s 766 mmHg 88%
22:00 +12°C° 0 mm 3 m/s 766 mmHg 90%
23:00 +12°C° 0 mm 3 m/s 766 mmHg 92%

26 Ianuarie, Marţi

Timp Temperatura Precipitaţii Vânt Presiune Umiditate
00:00 +12°C° 0 mm 3 m/s 766 mmHg 93%
01:00 +12°C° 0 mm 3 m/s 766 mmHg 94%
02:00 +13°C° 0 mm 3 m/s 766 mmHg 95%
03:00 +13°C° 0 mm 3 m/s 766 mmHg 95%
04:00 +14°C° 0 mm 2 m/s 766 mmHg 96%
05:00 +14°C° 0 mm 2 m/s 766 mmHg 96%
06:00 +14°C° 0 mm 2 m/s 766 mmHg 96%
07:00 +14°C° 0 mm 2 m/s 767 mmHg 95%
08:00 +14°C° 0 mm 2 m/s 767 mmHg 95%
09:00 +16°C° 0 mm 2 m/s 767 mmHg 91%
10:00 +17°C° 0 mm 2 m/s 768 mmHg 87%
11:00 +18°C° 0 mm 3 m/s 768 mmHg 83%
12:00 +18°C° 0 mm 3 m/s 767 mmHg 84%
13:00 +18°C° 0 mm 3 m/s 767 mmHg 85%
14:00 +18°C° 0 mm 3 m/s 767 mmHg 86%
15:00 +17°C° 0 mm 2 m/s 767 mmHg 89%
16:00 +16°C° 0 mm 2 m/s 767 mmHg 91%
17:00 +16°C° 0 mm 2 m/s 768 mmHg 94%
18:00 +15°C° 0 mm 2 m/s 768 mmHg 95%
19:00 +15°C° 0 mm 1 m/s 768 mmHg 96%
20:00 +14°C° 0 mm 1 m/s 769 mmHg 96%
21:00 +14°C° 0 mm 1 m/s 768 mmHg 97%
22:00 +14°C° 0 mm 1 m/s 768 mmHg 97%
23:00 +14°C° 0 mm 1 m/s 768 mmHg 97%
Arată mai mult

Formular de consimțământ

Meteoprog și furnizorii noștri de servicii pot stoca și accesa date personale, precum cookies, identificatori de dispozitiv sau alte tehnologii similare pe dispozitivul dumneavoastră și procesa astfel de date pentru a personaliza conținutul și reclamele, dar și pentru a oferi caracteristici de social media și pentru a analiza traficul.

  • Stocarea și/sau accesarea informațiilor pe dispozitivul dumneavoastră

    Cookies, identificatori de dispozitiv sau alte informații pot fi stocate sau accesate pe dispozitiv în scopurile indicate mai sus.

  • Reclame și conținut personalizat, evaluarea reclamelor și a conținutului, informații despre audiențe și dezvoltarea produselor

    Reclamele și conținutul pot fi personalizate pe baza unui profil. Pot fi adăugate date suplimentare pentru a personaliza mai bine reclamele și conținutul. Performanța reclamelor și conținutului poate fi măsurată. Pot fi obținute informații despre utilizatorii care au văzut reclamele și conținutul. Aceste date pot fi utilizate pentru a dezvolta sau îmbunătăți experiența utilizatorilor, sistemele și software-ul.

Dând clic pe ‘Sunt de acord’, permiteți utilizarea cookie-urilor menționate, a identificatorilor de dispozitiv, balizelor web sau altor tehnologii similare. Setările pot fi modificate din browser-ul dispozitivului dumneavoastră.

În anumite scopuri, interesele legitime pot prima asupra consimțământului. Puteți citi mai multe informații în acest sens în Politica privind Confidențialitatea Datelor și Cookie.